[Date Prev][Date Next][Thread Prev][Thread Next] - [Date Index][Thread Index][Author Index]

2 Line ISS Keps 1-3



ISS
1 25544U 98067A   03003.50755319  .00023439  00000-0  30742-3 0  5425
2 25544  51.6344 127.4437 0004594 351.1682 100.7407 15.58424768235358


----
Via the sarex mailing list at AMSAT.ORG courtesy of AMSAT-NA.
To unsubscribe, send "unsubscribe sarex" to Majordomo@amsat.org



AMSAT Top AMSAT Home